[[{"header":{"parameterUnit":"m.s-1","parameterCategory":1,"la1":30.2991,"la2":30.254,"lo1":-89.0895,"lo2":-89.0444,"dy":0.0017,"dx":0.0017,"nx":28,"ny":28,"refTime":"2025-08-07T09:00:00:Z","depth":0,"parameterNumber":2,"parameterNumberName":"U-component_of_WINDS"},"data":[0,0,0,0,0,0,0,0,0,0,0,0,0,0,0,0,0,0,0,0,0,0,0,0,0,0,0,0,0,0,0,0,0,0,0,0,0,0,0,0,0,0,0,0,0,0,0,0,0,0,0,0,0,0,0,0,0,0,-2.489,-2.4893,0,-2.5173,-2.5176,-2.5179,-2.5361,-2.5362,-2.5364,-2.5365,-2.5632,-2.5638,-2.5644,0,0,0,0,0,0,0,0,0,0,0,0,0,-2.4488,-2.4495,-2.4889,-2.4893,-2.4897,-2.5172,-2.5176,-2.518,-2.5361,-2.5362,-2.5364,-2.5365,-2.563,-2.5637,-2.5644,0,0,0,0,0,0,0,0,0,0,0,0,0,-2.4705,-2.4497,-2.4889,-2.5021,-2.5036,-2.5172,-2.5176,-2.5181,-2.5361,-2.5362,-2.5364,-2.5366,-2.5628,-2.5636,-2.5645,-2.5665,0,0,-2.5673,-2.5677,0,0,0,0,0,0,0,0,-2.4693,-2.472,-2.4998,-2.5012,-2.5029,-2.5234,-2.5133,-2.5343,-2.536,-2.5236,-2.5365,-2.5367,-2.5497,-2.5516,-2.5565,-2.5678,-2.5689,-2.5674,-2.5679,-2.5683,-2.5686,0,0,0,0,0,0,0,-2.4677,-2.4708,-2.5001,-2.5001,-2.502,-2.506,-2.5093,-2.5173,-2.5352,-2.5247,-2.5261,-2.5294,-2.5505,-2.5556,-2.5573,-2.5693,-2.5673,-2.5681,-2.5687,-2.569,-2.5841,-2.5839,0,0,0,0,0,0,-2.4644,-2.4695,-2.4992,-2.5009,-2.4862,-2.5066,-2.5103,-2.5166,-2.5352,-2.5383,-2.5292,-2.5301,-2.554,-2.5562,-2.5583,-2.5621,-2.5683,-2.5691,-2.5697,-2.5842,-2.584,-2.5839,0,0,0,0,0,0,-2.4635,-2.4669,-2.4981,-2.4856,-2.4899,-2.5071,-2.514,-2.517,-2.5222,-2.5386,-2.5417,-2.5312,-2.5542,-2.557,-2.5646,-2.5633,-2.5695,-2.5704,-2.5844,-2.5842,-2.584,-2.5696,0,0,0,0,0,0,-2.4623,-2.4665,-2.4678,-2.4856,-2.4905,-2.5044,-2.514,-2.5175,-2.524,-2.5254,-2.5413,-2.5441,-2.5545,-2.5632,-2.5655,-2.5646,-2.5711,-2.5846,-2.5843,-2.584,-2.5703,-2.569,-2.5678,0,0,0,0,0,-2.4608,-2.462,-2.4678,-2.4712,-2.4926,-2.5043,-2.5071,-2.5197,-2.5238,-2.525,-2.5357,-2.5436,-2.5631,-2.5638,-2.5666,-2.5659,-2.5847,-2.5844,-2.584,-2.5708,-2.5692,-2.5678,0,0,0,0,0,0,-2.4427,-2.4646,-2.4711,-2.4783,-2.4895,-2.5074,-2.5093,-2.5175,-2.527,-2.5279,-2.5426,-2.546,-2.5521,-2.5598,-2.5602,-2.5691,-2.5748,-2.575,-2.5638,-2.5624,-2.5612,-2.5591,-2.5718,0,0,0,0,0,-2.4397,-2.448,-2.4664,-2.4709,-2.4763,-2.4918,-2.4973,-2.5063,-2.518,-2.5225,-2.5337,-2.5442,-2.5528,-2.558,-2.5668,-2.5716,-2.5752,-2.5725,-2.5713,-2.5702,-2.5701,-2.5734,-2.5724,-2.5828,-2.5828,-2.5828,0,0,-2.4332,-2.4463,-2.4504,-2.4677,-2.4773,-2.4851,-2.4956,-2.5032,-2.509,-2.5234,-2.5316,-2.5402,-2.5528,-2.5592,-2.5625,-2.5657,-2.5682,-2.5698,-2.5688,-2.5694,-2.573,-2.572,-2.5711,-2.5826,-2.5827,-2.5827,0,0,-2.4256,-2.4363,-2.4416,-2.4513,-2.4661,-2.4765,-2.4777,-2.4947,-2.5012,-2.5098,-2.521,-2.5277,-2.5421,-2.5509,-2.5571,-2.5535,-2.5611,-2.5558,-2.5492,-2.5523,-2.5514,-2.5508,-2.5495,-2.5489,-2.5558,-2.5557,-2.5557,0,-2.4155,-2.4284,-2.4429,-2.4503,-2.4574,-2.4719,-2.477,-2.4854,-2.5019,-2.5063,-2.51,-2.5289,-2.5383,-2.547,-2.5463,-2.5509,-2.5525,-2.554,-2.5505,-2.55,-2.5496,-2.5485,-2.548,-2.555,-2.5551,-2.5551,-2.5552,0,-2.4153,-2.424,-2.4263,-2.443,-2.4505,-2.4565,-2.4715,-2.4772,-2.4856,-2.4955,-2.5041,-2.5162,-2.5278,-2.5306,-2.5383,-2.5404,-2.542,-2.5479,-2.5539,-2.5477,-2.5469,-2.5466,-2.5539,-2.5542,-2.5544,-2.5546,0,0,-2.3964,-2.4219,-2.4224,-2.4304,-2.4481,-2.4548,-2.4614,-2.4738,-2.4784,-2.4893,-2.4951,-2.5074,-2.5132,-2.5203,-2.5293,-2.532,-2.5285,-2.5376,-2.5381,-2.5355,-2.5315,-2.5269,-2.5262,-2.5338,-2.5338,-2.5338,-2.5304,0,-2.3914,-2.4051,-2.4186,-2.4272,-2.4354,-2.4495,-2.4554,-2.4666,-2.4761,-2.484,-2.4942,-2.5028,-2.5097,-2.5142,-2.5176,-2.5282,-2.5278,-2.5286,-2.5389,-2.5391,-2.5352,-2.5258,-2.5209,-2.5171,-2.5302,-2.5302,-2.5301,0,-2.3872,-2.3987,-2.4083,-2.4259,-2.4298,-2.4349,-2.4474,-2.455,-2.4679,-2.4746,-2.483,-2.4928,-2.5002,-2.5056,-2.5158,-2.5161,-2.5211,-2.527,-2.5271,-2.5284,-2.534,-2.5267,-2.5162,-2.5156,-2.5298,-2.5298,-2.5298,0,-2.3726,-2.3903,-2.3986,-2.4049,-2.4254,-2.4287,-2.4372,-2.4506,-2.4572,-2.4679,-2.4724,-2.4834,-2.4894,-2.4976,-2.51,-2.5128,-2.5188,-2.5252,-2.5243,-2.5239,-2.5246,-2.5244,-2.5147,-2.528,-2.528,-2.528,-2.528,0,-2.3655,-2.3708,-2.3924,-2.3974,-2.4038,-2.4191,-2.4248,-2.4345,-2.4463,-2.453,-2.4656,-2.4716,-2.4877,-2.4955,-2.5051,-2.5121,-2.5146,-2.52,-2.5225,-2.5189,-2.5182,-2.5221,-2.5226,-2.5279,-2.5279,-2.528,-2.528,0,-2.3501,-2.3648,-2.3747,-2.3938,-2.3987,-2.4025,-2.4185,-2.4236,-2.4342,-2.4426,-2.4454,-2.4617,-2.4715,-2.4849,-2.4985,-2.5051,-2.5107,-2.5147,-2.5066,-2.508,-2.5063,-2.5063,-2.4987,-2.4985,-2.5119,-2.5117,-2.5116,0,-2.3445,-2.3491,-2.369,-2.3749,-2.3834,-2.3925,-2.3997,-2.415,-2.4218,-2.4373,-2.4405,-2.4516,-2.4612,-2.4761,-2.4887,-2.4993,-2.5036,-2.5003,-2.5051,-2.5015,-2.5035,-2.503,-2.5035,-2.4988,-2.4986,-2.4985,-2.4983,0,-2.333,-2.3403,-2.3506,-2.3635,-2.372,-2.3826,-2.3938,-2.3977,-2.4152,-2.4222,-2.433,-2.4405,-2.4551,-2.4657,-2.4782,-2.4863,-2.495,-2.4968,-2.4971,-2.4933,-2.4885,-2.4911,-2.5032,-2.4968,-2.4969,-2.497,-2.4971,-2.4972,-2.3224,-2.3273,-2.3423,-2.3533,-2.3636,-2.3739,-2.38,-2.3917,-2.4012,-2.4148,-2.4231,-2.4334,-2.4464,-2.4642,-2.4721,-2.48,-2.4835,-2.4839,-2.484,-2.4838,-2.4827,-2.4875,-2.4823,-2.4824,-2.4824,-2.4825,-2.4825,0,-2.3116,-2.3222,-2.3323,-2.3481,-2.3567,-2.3654,-2.3783,-2.3847,-2.394,-2.4058,-2.4154,-2.4277,-2.4383,-2.4521,-2.4635,-2.4673,-2.4716,-2.4697,-2.4694,-2.4712,-2.4789,-2.4775,-2.4661,-2.4661,-2.4661,-2.4661,-2.4661,-2.4661,-2.307,-2.3159,-2.325,-2.339,-2.3494,-2.3604,-2.367,-2.3765,-2.3861,-2.3997,-2.4089,-2.4182,-2.4307,-2.4433,-2.4533,-2.4571,-2.4606,-2.4575,-2.4623,-2.4692,-2.4706,-2.472,-2.4708,-2.4581,-2.4581,-2.4541,-2.454,-2.454]},{"header":{"parameterUnit":"m.s-1","parameterCategory":1,"la1":30.2991,"la2":30.254,"lo1":-89.0895,"lo2":-89.0444,"dy":0.0017,"dx":0.0017,"nx":28,"ny":28,"refTime":"2025-08-07T09:00:00:Z","depth":0,"parameterNumber":3,"parameterNumberName":"V-component_of_WINDS"},"data":[0,0,0,0,0,0,0,0,0,0,0,0,0,0,0,0,0,0,0,0,0,0,0,0,0,0,0,0,0,0,0,0,0,0,0,0,0,0,0,0,0,0,0,0,0,0,0,0,0,0,0,0,0,0,0,0,0,0,0.5707,0.5706,0,0.5571,0.5569,0.5567,0.5498,0.5498,0.5498,0.5498,0.5355,0.5352,0.5348,0,0,0,0,0,0,0,0,0,0,0,0,0,0.5901,0.5898,0.5707,0.5706,0.5704,0.5571,0.5569,0.5567,0.5498,0.5498,0.5498,0.5498,0.5357,0.5352,0.5348,0,0,0,0,0,0,0,0,0,0,0,0,0,0.5796,0.5897,0.5708,0.5653,0.5647,0.5571,0.5569,0.5567,0.5498,0.5498,0.5498,0.5498,0.5358,0.5353,0.5347,0.5314,0,0,0.533,0.5327,0,0,0,0,0,0,0,0,0.5802,0.5789,0.5663,0.5657,0.565,0.5551,0.5585,0.5482,0.5498,0.5555,0.5498,0.5498,0.5421,0.541,0.5384,0.5307,0.5301,0.5329,0.5326,0.5324,0.5322,0,0,0,0,0,0,0,0.5809,0.5794,0.5653,0.5661,0.5653,0.5633,0.5618,0.5565,0.549,0.555,0.5544,0.5529,0.5417,0.539,0.538,0.5299,0.533,0.5325,0.5321,0.5319,0.5181,0.518,0,0,0,0,0,0,0.5826,0.5801,0.5657,0.5649,0.5727,0.563,0.5613,0.5583,0.549,0.5476,0.553,0.5527,0.5399,0.5387,0.5375,0.5327,0.5324,0.5318,0.5315,0.5181,0.5181,0.518,0,0,0,0,0,0,0.583,0.5814,0.5663,0.5723,0.5703,0.5627,0.5593,0.558,0.5553,0.5475,0.546,0.5516,0.5399,0.5383,0.5328,0.5321,0.5316,0.5311,0.5181,0.5181,0.5181,0.5232,0,0,0,0,0,0,0.5836,0.5816,0.5805,0.5724,0.57,0.5621,0.5593,0.5578,0.5544,0.5539,0.5459,0.5445,0.5398,0.5337,0.5323,0.5313,0.5306,0.5182,0.5181,0.5181,0.5231,0.5234,0.5236,0,0,0,0,0,0.5843,0.5825,0.5805,0.5788,0.5684,0.5621,0.5607,0.5554,0.5544,0.553,0.5479,0.5448,0.5324,0.5332,0.5315,0.5304,0.5182,0.5181,0.5181,0.523,0.5233,0.5236,0,0,0,0,0,0,0.5908,0.5814,0.579,0.5746,0.5692,0.561,0.5592,0.556,0.5507,0.5505,0.5439,0.5421,0.5372,0.5332,0.5343,0.5263,0.5249,0.5245,0.5292,0.5295,0.5297,0.5309,0.5302,0,0,0,0,0,0.5917,0.5876,0.5795,0.5763,0.5737,0.5669,0.5639,0.5602,0.5543,0.552,0.5465,0.5408,0.5355,0.5322,0.527,0.5223,0.5203,0.5207,0.5209,0.5212,0.521,0.5177,0.5177,0.5178,0.5178,0.5178,0,0,0.5936,0.5879,0.5857,0.5774,0.5728,0.5684,0.565,0.5606,0.5571,0.5513,0.5458,0.5415,0.5346,0.5294,0.5268,0.5259,0.5204,0.5211,0.5213,0.521,0.5177,0.5177,0.5177,0.5178,0.5178,0.5178,0,0,0.5948,0.5901,0.5868,0.5822,0.5752,0.5705,0.5697,0.5618,0.5587,0.553,0.5484,0.544,0.5353,0.5304,0.5268,0.5253,0.5222,0.5238,0.5252,0.5221,0.5221,0.5221,0.5214,0.5212,0.5235,0.5235,0.5235,0,0.598,0.5913,0.5855,0.5812,0.5775,0.5718,0.5682,0.5639,0.5556,0.553,0.5521,0.5406,0.5356,0.529,0.5286,0.5259,0.5245,0.5248,0.5226,0.5225,0.5224,0.5216,0.5214,0.5238,0.5238,0.5237,0.5237,0,0.5954,0.5908,0.5889,0.5809,0.577,0.5731,0.5663,0.563,0.5594,0.5547,0.5487,0.5424,0.5356,0.5337,0.5303,0.5264,0.526,0.5239,0.5224,0.5227,0.5219,0.5216,0.5241,0.524,0.524,0.5239,0,0,0.6009,0.5893,0.5887,0.5848,0.5763,0.5725,0.568,0.5613,0.5584,0.5526,0.5486,0.5409,0.5387,0.5346,0.5304,0.5278,0.5266,0.5259,0.5256,0.5262,0.5217,0.5234,0.5232,0.5243,0.5242,0.5242,0.5222,0,0.6008,0.5928,0.5871,0.5812,0.5766,0.5708,0.5668,0.561,0.5564,0.5515,0.5463,0.5409,0.5386,0.536,0.533,0.5274,0.5256,0.5275,0.5203,0.5201,0.5223,0.5227,0.5246,0.5231,0.5218,0.5218,0.5217,0,0.5998,0.5941,0.5878,0.5793,0.5772,0.5738,0.5669,0.5624,0.5555,0.5522,0.5473,0.5429,0.5376,0.5363,0.5286,0.5299,0.5265,0.5232,0.523,0.5223,0.5211,0.522,0.5225,0.5223,0.5212,0.5212,0.5213,0,0.6042,0.5949,0.5898,0.5866,0.5767,0.5744,0.5701,0.5631,0.5593,0.5531,0.5505,0.5438,0.5402,0.5349,0.5286,0.5283,0.5214,0.5197,0.5184,0.5186,0.5175,0.5177,0.5175,0.5152,0.5152,0.5152,0.5152,0,0.6048,0.6012,0.5916,0.5885,0.584,0.5772,0.5728,0.568,0.5617,0.5573,0.5517,0.5476,0.5396,0.5344,0.5294,0.5236,0.522,0.519,0.5177,0.5196,0.52,0.5174,0.5174,0.5151,0.5151,0.5152,0.5152,0,0.6092,0.6027,0.5967,0.5876,0.5852,0.5823,0.5744,0.5709,0.5657,0.5601,0.5583,0.5501,0.5437,0.5368,0.528,0.5246,0.519,0.5172,0.5214,0.5207,0.5198,0.5199,0.5181,0.5174,0.5156,0.5156,0.5156,0,0.6101,0.6071,0.5976,0.5942,0.5901,0.5848,0.5807,0.5737,0.5697,0.5612,0.5586,0.5517,0.5458,0.5356,0.5288,0.5218,0.5198,0.5196,0.5188,0.5205,0.5197,0.52,0.5195,0.52,0.5201,0.5201,0.5201,0,0.6123,0.6091,0.6036,0.5968,0.5921,0.5864,0.5805,0.578,0.5697,0.5653,0.5586,0.5541,0.5449,0.5379,0.5301,0.5253,0.5212,0.5204,0.5197,0.5216,0.5241,0.5226,0.5222,0.5205,0.5205,0.5205,0.5205,0.5204,0.6149,0.6118,0.6045,0.5984,0.5931,0.5876,0.5838,0.5779,0.5722,0.5643,0.5603,0.5536,0.546,0.535,0.5303,0.5246,0.5235,0.5226,0.5223,0.5222,0.5226,0.5249,0.5232,0.5232,0.5231,0.5231,0.5231,0,0.6168,0.6117,0.6061,0.5979,0.5929,0.5894,0.5825,0.5785,0.5727,0.566,0.5602,0.5522,0.5453,0.5377,0.5302,0.5271,0.525,0.5254,0.5256,0.5245,0.5241,0.5255,0.5272,0.5272,0.5272,0.5272,0.5272,0.5272,0.6172,0.6117,0.6075,0.599,0.5938,0.5872,0.5835,0.5782,0.5728,0.5642,0.5584,0.5534,0.5462,0.538,0.5314,0.5292,0.5267,0.5276,0.525,0.5249,0.5246,0.5243,0.5255,0.5272,0.5272,0.5258,0.5258,0.5258]}]]